timestamp,surface_pressure_avg,surface_temp_avg,battery_voltage,lat,long
2021-10-21 00:09:01+00:00,371.8046,10.91,12.57,47.84626,-54.09684
2021-10-21 00:19:01+00:00,372.2162,10.91,12.57,47.84626,-54.09684
2021-10-21 00:29:01+00:00,370.7745,10.94,12.57,47.84626,-54.09684
2021-10-21 00:39:01+00:00,366.9095,10.96,12.57,47.84626,-54.09684
2021-10-21 00:49:01+00:00,361.9464,10.96,12.57,47.84626,-54.09684
2021-10-21 00:59:01+00:00,362.93800000000016,10.96,12.57,47.84626,-54.09684
2021-10-21 01:09:01+00:00,361.9679,10.97,12.57,47.84626,-54.09684
2021-10-21 01:19:01+00:00,354.1229,10.97,12.57,47.84626,-54.09684
2021-10-21 01:29:01+00:00,348.8629,10.97,12.57,47.84626,-54.09684
2021-10-21 01:39:01+00:00,344.45300000000015,10.96,12.57,47.84626,-54.09684
2021-10-21 01:49:01+00:00,338.9613,10.96,12.57,47.84626,-54.09684
2021-10-21 01:59:01+00:00,330.9178,10.97,12.57,47.84626,-54.09684
2021-10-21 02:09:01+00:00,324.2964,10.97,12.57,47.84626,-54.09684
2021-10-21 02:19:00+00:00,318.6213,10.99,12.57,47.84626,-54.09684
2021-10-21 02:29:00+00:00,307.668,10.99,12.57,47.84626,-54.09684
2021-10-21 02:39:00+00:00,299.2131,10.99,12.57,47.84626,-54.09684
2021-10-21 02:49:00+00:00,292.58799999999997,10.99,12.57,47.84626,-54.09684
2021-10-21 02:59:00+00:00,283.9348,10.99,12.57,47.84626,-54.09684
2021-10-21 03:09:00+00:00,273.9098,10.96,12.57,47.84626,-54.09684
2021-10-21 03:19:00+00:00,264.7814,10.98,12.57,47.84626,-54.09684
2021-10-21 03:29:00+00:00,259.9047,10.99,12.57,47.84626,-54.09684
2021-10-21 03:39:00+00:00,252.8181,10.99,12.57,47.84626,-54.09684
2021-10-21 03:49:00+00:00,244.8964,10.94,12.57,47.84626,-54.09684
2021-10-21 03:59:00+00:00,236.0064,10.9,12.57,47.84626,-54.09684
2021-10-21 04:09:00+00:00,227.8048,10.9,12.57,47.84626,-54.09684
2021-10-21 04:19:01+00:00,221.2781,10.9,12.57,47.84626,-54.09684
2021-10-21 04:29:01+00:00,218.243,10.9,12.57,47.84626,-54.09684
2021-10-21 04:39:01+00:00,216.1531,10.93,12.57,47.84626,-54.09684
2021-10-21 04:49:01+00:00,212.8181,10.94,12.57,47.84626,-54.09684
2021-10-21 04:59:01+00:00,207.3781,10.95,12.57,47.84626,-54.09684
2021-10-21 05:09:01+00:00,205.7531,10.96,12.57,47.84626,-54.09684
2021-10-21 05:19:00+00:00,209.2698,10.95,12.57,47.84626,-54.09684
2021-10-21 05:29:00+00:00,208.9365,10.93,12.57,47.84626,-54.09684
2021-10-21 05:39:00+00:00,204.5648,10.9,12.57,47.84626,-54.09684
2021-10-21 05:49:00+00:00,205.4631,10.9,12.57,47.84626,-54.09684
2021-10-21 05:59:00+00:00,211.0881,10.9,12.57,47.84626,-54.09684
2021-10-21 06:09:00+00:00,211.0164,10.9,12.57,47.84626,-54.09684
2021-10-21 06:19:00+00:00,210.8765,10.89,12.57,47.84626,-54.09684
2021-10-21 06:29:00+00:00,217.8331,10.88,12.57,47.84626,-54.09684
2021-10-21 06:39:00+00:00,224.118,10.89,12.57,47.84626,-54.09684
2021-10-21 06:49:00+00:00,223.7414,10.89,12.57,47.84626,-54.09684
2021-10-21 06:59:00+00:00,228.2581,10.89,12.57,47.84626,-54.09684
2021-10-21 07:09:00+00:00,239.1314,10.87,12.57,47.84626,-54.09684
2021-10-21 07:19:01+00:00,243.0781,10.86,12.57,47.84626,-54.09684
2021-10-21 07:29:01+00:00,242.9197,10.86,12.57,47.84626,-54.09684
2021-10-21 07:39:01+00:00,248.6697,10.81,12.57,47.84626,-54.09684
2021-10-21 07:49:01+00:00,258.9798,10.8,12.57,47.84626,-54.09684
2021-10-21 07:59:01+00:00,260.103,10.8,12.57,47.84626,-54.09684
2021-10-21 08:09:01+00:00,256.9564,10.8,12.57,47.84626,-54.09684
2021-10-21 08:19:01+00:00,262.0114,10.8,12.57,47.84626,-54.09684
2021-10-21 08:29:01+00:00,271.1298,10.8,12.57,47.84626,-54.09684
2021-10-21 08:39:01+00:00,271.738,10.8,12.57,47.84626,-54.09684
2021-10-21 08:49:01+00:00,272.4731,10.8,12.57,47.84626,-54.09684
2021-10-21 08:59:01+00:00,281.5914,10.8,12.57,47.84626,-54.09684
2021-10-21 09:09:01+00:00,290.3063,10.8,12.57,47.84626,-54.09684
2021-10-21 09:19:01+00:00,291.8147,10.8,12.57,47.84626,-54.09684
2021-10-21 09:29:01+00:00,297.903,10.79,12.57,47.84626,-54.09684
2021-10-21 09:39:01+00:00,310.1446,10.79,12.57,47.84626,-54.09684
2021-10-21 09:49:01+00:00,313.9431,10.77,12.57,47.84626,-54.09684
2021-10-21 09:59:01+00:00,314.133,10.7,12.57,47.84626,-54.09684
2021-10-21 10:09:01+00:00,324.7762,10.7,12.57,47.84626,-54.09684
2021-10-21 10:19:01+00:00,337.6930000000001,10.7,12.57,47.84626,-54.09684
2021-10-21 10:29:01+00:00,341.1113,10.7,12.57,47.84626,-54.09684
2021-10-21 10:39:01+00:00,344.8113,10.7,12.57,47.84626,-54.09684
2021-10-21 10:49:01+00:00,356.2745,10.7,12.57,47.84626,-54.09684
2021-10-21 10:59:01+00:00,364.2795,10.69,12.57,47.84626,-54.09684
2021-10-21 11:09:01+00:00,368.4996,10.63,12.57,47.84626,-54.09684
2021-10-21 11:19:01+00:00,373.4596,10.62,12.81,47.84626,-54.09684
2021-10-21 11:29:01+00:00,376.2063,10.61,12.81,47.84626,-54.09684
2021-10-21 11:39:01+00:00,377.0213,10.63,12.81,47.84626,-54.09684
2021-10-21 11:49:01+00:00,378.6262,10.65,12.81,47.84626,-54.09684
2021-10-21 11:59:01+00:00,381.7646,10.63,12.81,47.84626,-54.09684
2021-10-21 12:09:01+00:00,380.7897,10.63,12.81,47.84626,-54.09684
2021-10-21 12:19:01+00:00,378.3129,10.65,13.37,47.84626,-54.09684
2021-10-21 12:29:01+00:00,380.2213,10.65,13.37,47.84626,-54.09684
2021-10-21 12:39:01+00:00,379.6662,10.63,13.37,47.84626,-54.09684
2021-10-21 12:49:01+00:00,373.5296,10.62,13.37,47.84626,-54.09684
2021-10-21 12:59:01+00:00,372.6046,10.6,13.37,47.84626,-54.09684
2021-10-21 13:09:01+00:00,372.6212,10.6,13.37,47.84626,-54.09684
2021-10-21 13:19:01+00:00,363.6646,10.6,13.92,47.84626,-54.09684
2021-10-21 13:29:01+00:00,357.8196,10.6,13.92,47.84626,-54.09684
2021-10-21 13:39:01+00:00,358.5663,10.6,13.92,47.84626,-54.09684
2021-10-21 13:49:01+00:00,353.5829,10.6,13.92,47.84626,-54.09684
2021-10-21 13:59:01+00:00,344.1512,10.6,13.92,47.84626,-54.09684
2021-10-21 14:09:01+00:00,342.9247,10.6,13.92,47.84626,-54.09684
2021-10-21 14:19:01+00:00,342.1396,10.6,14.56,47.84626,-54.09684
2021-10-21 14:29:01+00:00,329.2630000000001,10.6,14.56,47.84626,-54.09684
2021-10-21 14:39:01+00:00,319.358,10.6,14.56,47.84626,-54.09684
2021-10-21 14:49:01+00:00,314.2729,10.6,14.56,47.84626,-54.09684
2021-10-21 14:59:01+00:00,304.808,10.6,14.56,47.84626,-54.09684
2021-10-21 15:09:01+00:00,291.3997,10.5,14.56,47.84626,-54.09684
2021-10-21 15:19:01+00:00,286.2164,10.43,14.08,47.84626,-54.09684
2021-10-21 15:29:01+00:00,282.0731,10.48,14.08,47.84626,-54.09684
2021-10-21 15:39:01+00:00,269.3881,10.4,14.08,47.84626,-54.09684
2021-10-21 15:49:01+00:00,256.9731,10.46,14.08,47.84626,-54.09684
2021-10-21 15:59:01+00:00,252.7448,10.5,14.08,47.84626,-54.09684
2021-10-21 16:09:01+00:00,247.7398,10.5,14.08,47.84626,-54.09684
2021-10-21 16:19:01+00:00,236.1048,10.5,14.24,47.84626,-54.09684
2021-10-21 16:29:01+00:00,228.2747,10.53,14.24,47.84626,-54.09684
2021-10-21 16:39:01+00:00,225.2814,10.56,14.24,47.84626,-54.09684
2021-10-21 16:49:01+00:00,218.0297,10.58,14.24,47.84626,-54.09684
2021-10-21 16:59:01+00:00,208.1231,10.59,14.24,47.84626,-54.09684
2021-10-21 17:09:01+00:00,205.4731,10.58,14.24,47.84626,-54.09684
2021-10-21 17:19:01+00:00,204.1331,10.57,14.16,47.84626,-54.09684
2021-10-21 17:29:01+00:00,195.6798,10.55,14.16,47.84626,-54.09684
2021-10-21 17:39:01+00:00,190.6581,10.52,14.16,47.84626,-54.09684
2021-10-21 17:49:01+00:00,193.4315,10.51,14.16,47.84626,-54.09684
2021-10-21 17:59:01+00:00,190.9814,10.5,14.16,47.84626,-54.09684
2021-10-21 18:09:01+00:00,184.6731,10.52,14.16,47.84626,-54.09684
2021-10-21 18:19:01+00:00,188.7581,10.5,13.92,47.84626,-54.09684
2021-10-21 18:29:01+00:00,195.2964,10.51,13.92,47.84626,-54.09684
2021-10-21 18:39:01+00:00,193.1964,10.51,13.92,47.84626,-54.09684
2021-10-21 18:49:01+00:00,194.2648,10.52,13.92,47.84626,-54.09684
2021-10-21 18:59:01+00:00,200.9281,10.5,13.92,47.84626,-54.09684
2021-10-21 19:09:01+00:00,206.2298,10.5,13.92,47.84626,-54.09684
2021-10-21 19:19:00+00:00,210.1698,10.5,13.76,47.84626,-54.09684
2021-10-21 19:29:00+00:00,216.3064,10.5,13.76,47.84626,-54.09684
2021-10-21 19:39:00+00:00,222.1131,10.5,13.76,47.84626,-54.09684
2021-10-21 19:49:00+00:00,227.1298,10.5,13.76,47.84626,-54.09684
2021-10-21 19:59:00+00:00,232.2514,10.5,13.76,47.84626,-54.09684
2021-10-21 20:09:00+00:00,237.2331,10.5,13.76,47.84626,-54.09684
2021-10-21 20:19:01+00:00,242.7964,10.5,13.44,47.84626,-54.09684
2021-10-21 20:29:01+00:00,248.3114,10.5,13.44,47.84626,-54.09684
2021-10-21 20:39:01+00:00,253.1397,10.5,13.44,47.84626,-54.09684
2021-10-21 20:49:01+00:00,257.1631,10.48,13.44,47.84626,-54.09684
2021-10-21 20:59:01+00:00,264.1598,10.45,13.44,47.84626,-54.09684
2021-10-21 21:09:01+00:00,272.5731,10.45,13.44,47.84626,-54.09684
2021-10-21 21:19:01+00:00,278.088,10.4,13.13,47.84626,-54.09684
2021-10-21 21:29:01+00:00,279.8813,10.43,13.13,47.84626,-54.09684
2021-10-21 21:39:01+00:00,285.7564,10.44,13.13,47.84626,-54.09684
2021-10-21 21:49:01+00:00,294.2264,10.45,13.13,47.84626,-54.09684
2021-10-21 21:59:01+00:00,297.8714,10.43,13.13,47.84626,-54.09684
2021-10-21 22:09:01+00:00,302.948,10.42,13.13,47.84626,-54.09684
2021-10-21 22:19:01+00:00,313.6263,10.42,12.81,47.84626,-54.09684
2021-10-21 22:29:01+00:00,321.078,10.4,12.81,47.84626,-54.09684
2021-10-21 22:39:01+00:00,324.3929,10.4,12.81,47.84626,-54.09684
2021-10-21 22:49:01+00:00,334.2579,10.4,12.81,47.84626,-54.09684
2021-10-21 22:59:01+00:00,342.1380000000001,10.4,12.81,47.84626,-54.09684
2021-10-21 23:09:01+00:00,344.57300000000015,10.37,12.81,47.84626,-54.09684
2021-10-21 23:19:01+00:00,348.4696,10.3,12.73,47.84626,-54.09684
2021-10-21 23:29:01+00:00,354.4613,10.3,12.73,47.84626,-54.09684
2021-10-21 23:39:01+00:00,356.403,10.32,12.73,47.84626,-54.09684
2021-10-21 23:49:01+00:00,357.0446,10.37,12.73,47.84626,-54.09684
2021-10-21 23:59:01+00:00,361.1094,10.38,12.73,47.84626,-54.09684
